This is the latest recevied weather packets stored in our database for station/object W6MAF. If no packets are shown the sender has not sent any weather packets the latest 10 day(s).
| Time | Temp. | Humidity | Pressure | Rain* | Wind** | Luminosity | Snow |
|---|---|---|---|---|---|---|---|
| 1777159685 | 12.22° C | 43% | - | 0 mm | 7.15 m/s, 198° | - | - |
| 1777159385 | 12.22° C | 42% | - | 0 mm | 8.94 m/s, 188° | - | - |
| 1777159087 | 12.22° C | 44% | - | 0 mm | 7.15 m/s, 211° | - | - |
| 1777158789 | 11.67° C | 44% | - | 0 mm | 8.49 m/s, 197° | - | - |
| 1777158491 | 11.67° C | 44% | - | 0 mm | 8.94 m/s, 174° | - | - |
| 1777158194 | 11.67° C | 45% | - | 0 mm | 9.39 m/s, 191° | - | - |
| 1777157896 | 11.67° C | 46% | - | 0 mm | 10.28 m/s, 197° | - | - |
| 1777157595 | 11.67° C | 45% | - | 0 mm | 9.39 m/s, 195° | - | - |
| 1777157298 | 11.67° C | 46% | - | 0 mm | 7.15 m/s, 194° | - | - |
| 1777157000 | 11.67° C | 46% | - | 0 mm | 9.39 m/s, 186° | - | - |
| 1777156702 | 12.22° C | 43% | - | 0 mm | 11.18 m/s, 204° | - | - |
| 1777156405 | 12.22° C | 45% | - | 0 mm | 10.73 m/s, 200° | - | - |
| 1777156107 | 12.22° C | 45% | - | 0 mm | 9.39 m/s, 195° | - | - |
| 1777155806 | 12.22° C | 46% | - | 0 mm | 9.39 m/s, 208° | - | - |
| 1777155508 | 12.22° C | 46% | - | 0 mm | 9.83 m/s, 186° | - | - |
| 1777155211 | 11.67° C | 46% | - | 0 mm | 12.52 m/s, 183° | - | - |
| 1777154913 | 12.22° C | 45% | - | 0 mm | 10.73 m/s, 200° | - | - |
| 1777154615 | 12.22° C | 44% | - | 0 mm | 11.18 m/s, 193° | - | - |
| 1777154318 | 12.22° C | 43% | - | 0 mm | 12.96 m/s, 172° | - | - |
| 1777154017 | 12.22° C | 45% | - | 0 mm | 10.28 m/s, 208° | - | - |
| 1777153719 | 12.78° C | 45% | - | 0 mm | 9.83 m/s, 169° | - | - |
| 1777153422 | 12.78° C | 42% | - | 0 mm | 7.15 m/s, 205° | - | - |
| 1777153124 | 13.33° C | 41% | - | 0 mm | 6.71 m/s, 183° | - | - |
| 1777152826 | 13.89° C | 38% | - | 0 mm | 7.6 m/s, 190° | - | - |
| 1777152529 | 14.44° C | 37% | - | 0 mm | 8.94 m/s, 201° | - | - |
* Rain latest hour (hover to see other rain measurements)
** Current wind speed in m/s (hover to see current wind gust speed)